When you browse on this site, cookies collect data to enhance your experience and personalize the content and advertising you see.
Visit our Privacy Policy to learn more. By continuing to use the site, you agree to this use of cookies and data.
  • In Germany
  • List of Countries
  • For 7 days
  • Water Temperature
  • Satellite Maps
  • Weather Map
  • Weather Widgets
  • user-avatar
    Login

    Hourly Weather Jerusalem

    Today, 17 December, Monday

    Time Temperature Precipitation Wind Pressure Humidity
    00:00 +13°C° 0 mm 2 mps 695 mmHg 62%
    01:00 +12°C° 0 mm 2 mps 695 mmHg 61%
    02:00 +12°C° 0 mm 2 mps 694 mmHg 61%
    03:00 +10°C° 0 mm 2 mps 694 mmHg 59%
    04:00 +10°C° 0 mm 2 mps 694 mmHg 57%
    05:00 +10°C° 0 mm 2 mps 694 mmHg 56%
    06:00 +10°C° 0 mm 3 mps 695 mmHg 53%
    07:00 +11°C° 0 mm 3 mps 695 mmHg 50%
    08:00 +11°C° 0 mm 3 mps 695 mmHg 46%
    09:00 +12°C° 0 mm 4 mps 695 mmHg 45%
    10:00 +13°C° 0 mm 5 mps 695 mmHg 44%
    11:00 +14°C° 0 mm 6 mps 695 mmHg 43%
    12:00 +14°C° 0 mm 6 mps 695 mmHg 45%
    13:00 +14°C° 0 mm 6 mps 695 mmHg 47%
    14:00 +14°C° 0 mm 6 mps 696 mmHg 49%
    15:00 +13°C° 0 mm 6 mps 696 mmHg 52%
    16:00 +13°C° 0 mm 5 mps 696 mmHg 56%
    17:00 +12°C° 0 mm 4 mps 696 mmHg 59%
    18:00 +12°C° 0.1 mm 4 mps 696 mmHg 59%
    19:00 +11°C° 0.1 mm 4 mps 696 mmHg 60%
    20:00 +11°C° 0.1 mm 4 mps 696 mmHg 60%
    21:00 +11°C° 0.1 mm 4 mps 697 mmHg 59%
    22:00 +11°C° 0.1 mm 4 mps 697 mmHg 59%
    23:00 +11°C° 0.1 mm 4 mps 697 mmHg 58%

    Tomorrow, 18 December, Tuesday

    Time Temperature Precipitation Wind Pressure Humidity
    00:00 +11°C° 0.2 mm 4 mps 697 mmHg 62%
    01:00 +11°C° 0.2 mm 4 mps 697 mmHg 66%
    02:00 +11°C° 0.2 mm 4 mps 697 mmHg 70%
    03:00 +11°C° 0.1 mm 4 mps 697 mmHg 73%
    04:00 +11°C° 0.1 mm 4 mps 697 mmHg 75%
    05:00 +11°C° 0.1 mm 4 mps 697 mmHg 77%
    06:00 +11°C° 0.1 mm 4 mps 697 mmHg 76%
    07:00 +11°C° 0.1 mm 4 mps 698 mmHg 75%
    08:00 +11°C° 0.1 mm 4 mps 698 mmHg 74%
    09:00 +12°C° 0 mm 4 mps 698 mmHg 68%
    10:00 +13°C° 0 mm 4 mps 698 mmHg 62%
    11:00 +14°C° 0 mm 4 mps 698 mmHg 56%
    12:00 +14°C° 0 mm 3 mps 698 mmHg 54%
    13:00 +14°C° 0 mm 3 mps 698 mmHg 51%
    14:00 +16°C° 0 mm 3 mps 697 mmHg 49%
    15:00 +15°C° 0 mm 2 mps 697 mmHg 52%
    16:00 +14°C° 0 mm 2 mps 697 mmHg 55%
    17:00 +14°C° 0 mm 1 mps 697 mmHg 58%
    18:00 +13°C° 0 mm 1 mps 697 mmHg 60%
    19:00 +13°C° 0 mm 1 mps 697 mmHg 62%
    20:00 +12°C° 0 mm 1 mps 697 mmHg 65%
    21:00 +12°C° 0 mm 1 mps 697 mmHg 65%
    22:00 +12°C° 0 mm 1 mps 697 mmHg 65%
    23:00 +11°C° 0 mm 1 mps 696 mmHg 65%

    Day after tomorrow, 19 December, Wednesday

    Time Temperature Precipitation Wind Pressure Humidity
    00:00 +11°C° 0 mm 1 mps 696 mmHg 65%
    01:00 +11°C° 0 mm 1 mps 696 mmHg 65%
    02:00 +11°C° 0 mm 1 mps 696 mmHg 64%
    03:00 +10°C° 0 mm 2 mps 695 mmHg 64%
    04:00 +9°C° 0 mm 2 mps 695 mmHg 64%
    05:00 +9°C° 0 mm 2 mps 695 mmHg 64%
    06:00 +10°C° 0 mm 2 mps 695 mmHg 63%
    07:00 +10°C° 0 mm 3 mps 695 mmHg 61%
    08:00 +11°C° 0 mm 3 mps 696 mmHg 59%
    09:00 +12°C° 0.1 mm 4 mps 696 mmHg 57%
    10:00 +13°C° 0.1 mm 5 mps 696 mmHg 55%
    11:00 +14°C° 0.1 mm 6 mps 696 mmHg 52%
    12:00 +14°C° 0.1 mm 6 mps 696 mmHg 52%
    13:00 +14°C° 0.1 mm 7 mps 695 mmHg 52%
    14:00 +14°C° 0.1 mm 7 mps 695 mmHg 52%
    15:00 +12°C° 0 mm 7 mps 695 mmHg 53%
    16:00 +11°C° 0 mm 6 mps 695 mmHg 55%
    17:00 +12°C° 0 mm 5 mps 695 mmHg 56%
    18:00 +10°C° 0.1 mm 5 mps 695 mmHg 57%
    19:00 +11°C° 0.1 mm 4 mps 695 mmHg 57%
    20:00 +11°C° 0.1 mm 4 mps 695 mmHg 58%
    21:00 +10°C° 0.3 mm 4 mps 695 mmHg 61%
    22:00 +9°C° 0.3 mm 5 mps 695 mmHg 63%
    23:00 +9°C° 0.3 mm 5 mps 695 mmHg 66%

    20 December, Thursday

    Time Temperature Precipitation Wind Pressure Humidity
    00:00 +9°C° 0.5 mm 5 mps 695 mmHg 69%
    01:00 +9°C° 0.5 mm 6 mps 695 mmHg 73%
    02:00 +8°C° 0.5 mm 6 mps 695 mmHg 77%
    03:00 +8°C° 0.7 mm 6 mps 695 mmHg 77%
    04:00 +8°C° 0.7 mm 6 mps 695 mmHg 78%
    05:00 +8°C° 0.7 mm 6 mps 695 mmHg 78%
    06:00 +9°C° 0.4 mm 6 mps 696 mmHg 77%
    07:00 +9°C° 0.4 mm 5 mps 696 mmHg 76%
    08:00 +9°C° 0.4 mm 5 mps 697 mmHg 74%
    09:00 +9°C° 0.2 mm 5 mps 697 mmHg 70%
    10:00 +10°C° 0.2 mm 5 mps 697 mmHg 67%
    11:00 +11°C° 0.2 mm 6 mps 697 mmHg 63%
    12:00 +11°C° 0.2 mm 6 mps 697 mmHg 63%
    13:00 +10°C° 0.2 mm 6 mps 697 mmHg 63%
    14:00 +10°C° 0.2 mm 6 mps 697 mmHg 64%
    15:00 +10°C° 0.1 mm 5 mps 697 mmHg 66%
    16:00 +11°C° 0.1 mm 4 mps 697 mmHg 68%
    17:00 +10°C° 0.1 mm 3 mps 697 mmHg 70%
    18:00 +10°C° 0.1 mm 3 mps 697 mmHg 72%
    19:00 +10°C° 0.1 mm 3 mps 698 mmHg 73%
    20:00 +9°C° 0.1 mm 3 mps 698 mmHg 75%
    21:00 +9°C° 0.1 mm 3 mps 698 mmHg 75%
    22:00 +9°C° 0.1 mm 3 mps 698 mmHg 76%
    23:00 +9°C° 0.1 mm 3 mps 698 mmHg 77%

    21 December, Friday

    Time Temperature Precipitation Wind Pressure Humidity
    00:00 +9°C° 0.1 mm 3 mps 698 mmHg 78%
    01:00 +9°C° 0.1 mm 3 mps 698 mmHg 79%
    02:00 +9°C° 0.1 mm 3 mps 698 mmHg 80%
    03:00 +9°C° 0.2 mm 3 mps 698 mmHg 81%
    04:00 +8°C° 0.2 mm 3 mps 698 mmHg 82%
    05:00 +8°C° 0.2 mm 3 mps 698 mmHg 83%
    06:00 +9°C° 0.1 mm 3 mps 698 mmHg 82%
    07:00 +9°C° 0.1 mm 3 mps 699 mmHg 82%
    08:00 +9°C° 0.1 mm 3 mps 699 mmHg 81%
    09:00 +10°C° 0 mm 3 mps 699 mmHg 77%
    10:00 +11°C° 0 mm 3 mps 699 mmHg 73%
    11:00 +12°C° 0 mm 3 mps 700 mmHg 69%
    12:00 +13°C° 0 mm 2 mps 699 mmHg 66%
    13:00 +13°C° 0 mm 2 mps 699 mmHg 63%
    14:00 +14°C° 0 mm 2 mps 699 mmHg 61%
    15:00 +13°C° 0 mm 2 mps 699 mmHg 64%
    16:00 +13°C° 0 mm 1 mps 699 mmHg 67%
    17:00 +12°C° 0 mm 1 mps 699 mmHg 70%
    18:00 +12°C° 0 mm 1 mps 699 mmHg 73%
    19:00 +11°C° 0 mm 1 mps 699 mmHg 75%
    20:00 +11°C° 0 mm 1 mps 699 mmHg 78%
    21:00 +10°C° 0 mm 1 mps 699 mmHg 78%
    22:00 +10°C° 0 mm 1 mps 699 mmHg 79%
    23:00 +10°C° 0 mm 1 mps 699 mmHg 79%

    22 December, Saturday

    Time Temperature Precipitation Wind Pressure Humidity
    00:00 +10°C° 0 mm 1 mps 699 mmHg 79%
    01:00 +9°C° 0 mm 1 mps 698 mmHg 78%
    02:00 +9°C° 0 mm 1 mps 698 mmHg 78%
    03:00 +9°C° 0 mm 1 mps 698 mmHg 77%
    04:00 +9°C° 0 mm 1 mps 698 mmHg 76%
    05:00 +9°C° 0 mm 1 mps 698 mmHg 75%
    06:00 +9°C° 0 mm 1 mps 698 mmHg 72%
    07:00 +10°C° 0 mm 1 mps 699 mmHg 69%
    08:00 +11°C° 0 mm 1 mps 699 mmHg 67%
    09:00 +10°C° 0 mm 2 mps 699 mmHg 65%
    10:00 +12°C° 0 mm 2 mps 699 mmHg 64%
    11:00 +13°C° 0 mm 2 mps 699 mmHg 62%
    12:00 +13°C° 0 mm 3 mps 699 mmHg 62%
    13:00 +13°C° 0 mm 4 mps 698 mmHg 61%
    14:00 +13°C° 0 mm 5 mps 698 mmHg 60%
    15:00 +12°C° 0 mm 4 mps 698 mmHg 63%
    16:00 +11°C° 0 mm 4 mps 698 mmHg 67%
    17:00 +11°C° 0 mm 3 mps 698 mmHg 70%
    18:00 +10°C° 0 mm 3 mps 698 mmHg 72%
    19:00 +10°C° 0 mm 2 mps 699 mmHg 74%
    20:00 +10°C° 0 mm 2 mps 699 mmHg 76%
    21:00 +10°C° 0 mm 1 mps 699 mmHg 77%
    22:00 +10°C° 0 mm 1 mps 699 mmHg 78%
    23:00 +10°C° 0 mm 1 mps 699 mmHg 78%
    Show more